Погода в Грабцеве

Россия / Калужская область     54°33′59″N   36°22′15″E
темп.,
°C
ветер,
м/с
пор.,
м/с
влажн.,
%
обл.,
%
осадки,
мм/ч
давл.,
гПа
погр.,
м
6 марта, сб
сб600:00−8сз018970 0.0 101521
03:00−8ссз119185 0.1 101722
06:00−10ссз3692100 0.0 1017134
09:00−10сз359151 0.0 1018210
12:00−5зсз46780 0.0 1018861
15:00−4зсз467550 0.2 10171059
18:00−7зсз238279 0.3 101739
21:00−9зюз378854 0.3 1017156
7 марта, вс
вс700:00−10юз498911 0.0 1014213
03:00−8юз6148449 0.0 1011535
06:00−7юз81787100 0.0 1007811
09:00−5юз91888100 0.3 10021111
12:00−2юз101992100 0.8 9961291
15:00−1з101596100 2.0 9951130
18:00−6з367167 0.9 998127
21:00−5з6138666 0.9 1000975
8 марта, пн
пн800:00−7зюз51579100 0.0 997668
03:00−6зюз61490100 0.1 997747
06:00−10з6139090 0.4 998732
09:00−8сз6118193 0.5 1002672
12:00−7зсз7108033 0.0 10041051
15:00−6зсз697967 0.1 10061115
18:00−7зсз4987100 0.1 1008566
21:00−10сз379288 0.1 1011173
9 марта, вт
вт900:00−13сз239651 0.0 101348
03:00−13ссз239768 0.0 101457
06:00−13ссз2296100 0.0 101567
09:00−13с359199 0.0 1017337
12:00−11ссз358292 0.0 1018663
15:00−9ссз357996 0.1 1019894
18:00−11ссз2588100 0.1 1019184
21:00−15ссз239491 0.1 102246
10 марта, ср
ср1000:00−16зсз119371 0.0 102320
03:00−15ююв019579 0.0 102324
06:00−15вюв3495100 0.3 1023170
09:00−14в3594100 0.9 1023259
12:00−13в5790100 0.5 1023406
15:00−12в468295 0.6 1024487
18:00−15в34867 0.0 1025143
21:00−19в24949 0.0 102776